2024-174C

Last updated on Fri Oct 25 2024 00:02:04 GMT+0000 (Coordinated Universal Time)

1 61240U 24174C 24298.59159407 .00012523 00000+0 64294-3 0 9996 2 61240 97.4509 303.3443 0015421 170.1360 190.0179 15.16544349 4452
UTC large
Height (km)
Speed (km/s)
/
Latitude / Longitude
Inclination (degrees)
Orbital Period (minutes)
Azimuth
Elevation
Range (km)
Doppler Factor

Next 0 passes for location: London (51.5072 / 0.1276)

Sorry there are no passes over London.